EW1134 Weather Reports


Display with metric or nautical units.
time (UTC)temp
F
wind
direction
speed
MPH
gust
MPH
rain 1hr
in
rain 24hr
in
rain mn
in
humidity
%
barometer
mb
20221205213004 52 239 2.0 4.0 0.00 0.00 0.00 80 1024.5
20221205212503 52 237 1.0 4.0 0.00 0.00 0.00 80 1024.8
20221205212003 52 245 1.0 5.0 0.00 0.00 0.00 80 1024.6
20221205211504 52 242 1.0 5.0 0.00 0.00 0.00 80 1024.5
20221205211004 52 225 1.0 3.0 0.00 0.00 0.00 81 1024.6
20221205210503 52 227 0.0 3.0 0.00 0.00 0.00 81 1024.6
20221205210004 52 230 0.0 3.0 0.00 0.00 0.00 80 1024.6
20221205205003 52 227 1.0 4.0 0.00 0.00 0.00 80 1024.6
20221205203504 53 225 1.0 4.0 0.00 0.00 0.00 79 1024.6
20221205203004 53 224 1.0 3.0 0.00 0.00 0.00 79 1024.6
20221205202503 53 215 1.0 3.0 0.00 0.00 0.00 79 1024.6
20221205202004 53 218 1.0 3.0 0.00 0.00 0.00 79 1024.5
20221205201504 53 225 1.0 3.0 0.00 0.00 0.00 79 1024.5
20221205201004 53 232 1.0 4.0 0.00 0.00 0.00 79 1024.6
20221205200503 53 239 1.0 4.0 0.00 0.00 0.00 78 1024.8
20221205200004 53 233 0.0 3.0 0.00 0.00 0.00 77 1024.8
20221205195503 54 211 1.0 3.0 0.00 0.00 0.00 77 1024.5
20221205195004 54 204 1.0 3.0 0.00 0.00 0.00 75 1024.6
20221205194004 54 218 0.0 2.0 0.00 0.00 0.00 73 1024.7
20221205193503 54 200 0.0 2.0 0.00 0.00 0.00 72 1024.6
20221205193003 54 181 0.0 1.0 0.00 0.00 0.00 72 1024.7
20221205192503 54 181 0.0 2.0 0.00 0.00 0.00 72 1024.8
20221205192004 55 203 0.0 2.0 0.00 0.00 0.00 72 1024.7
20221205191504 55 200 0.0 1.0 0.00 0.00 0.00 71 1024.6
20221205191003 55 206 0.0 2.0 0.00 0.00 0.00 71 1024.7
20221205190504 54 221 0.0 2.0 0.00 0.00 0.00 72 1024.6
20221205190005 54 84 0.0 2.0 0.00 0.00 0.00 71 1024.7
20221205185503 54 208 0.0 3.0 0.00 0.00 0.00 71 1024.8
20221205185003 54 221 0.0 3.0 0.00 0.00 0.00 72 1024.7
20221205184504 54 181 0.0 1.0 0.00 0.00 0.00 71 1024.8
20221205184005 54 197 0.0 2.0 0.00 0.00 0.00 71 1024.9
20221205183503 54 193 0.0 3.0 0.00 0.00 0.00 72 1024.8
20221205183004 54 195 0.0 3.0 0.00 0.00 0.00 71 1024.9
20221205182508 54 212 0.0 2.0 0.00 0.00 0.00 72 1025.1
20221205182003 54 218 0.0 4.0 0.00 0.00 0.00 71 1024.7
20221205181504 54 220 0.0 4.0 0.00 0.00 0.00 71 1024.8
20221205181003 55 203 0.0 4.0 0.00 0.00 0.00 71 1024.9
20221205180504 54 174 0.0 2.0 0.00 0.00 0.00 70 1024.7
20221205180004 55 148 0.0 2.0 0.00 0.00 0.00 70 1024.9
20221205175504 55 144 0.0 3.0 0.00 0.00 0.00 70 1024.8
20221205175004 55 155 0.0 4.0 0.00 0.00 0.00 70 1024.7
20221205174505 55 160 1.0 4.0 0.00 0.00 0.00 70 1024.6
20221205174004 55 160 1.0 4.0 0.00 0.00 0.00 70 1024.7
20221205173004 55 140 1.0 4.0 0.00 0.00 0.00 70 1024.7
20221205172507 55 154 1.0 4.0 0.00 0.00 0.00 70 1024.5
20221205171003 55 163 0.0 2.0 0.00 0.00 0.00 70 1024.6
20221205170504 55 153 0.0 2.0 0.00 0.00 0.00 70 1024.8
20221205170005 55 135 0.0 1.0 0.00 0.00 0.00 69 1024.6
20221205165504 55 135 0.0 1.0 0.00 0.00 0.00 69 1024.7
20221205165003 55 128 0.0 3.0 0.00 0.00 0.00 68 1024.6
20221205164504 55 131 1.0 3.0 0.00 0.00 0.00 68 1024.6
20221205164004 55 131 0.0 3.0 0.00 0.00 0.00 69 1024.4
20221205163507 55 120 0.0 3.0 0.00 0.00 0.00 69 1024.4
20221205163005 56 86 0.0 3.0 0.00 0.00 0.00 68 1024.5
20221205162504 55 51 0.0 2.0 0.00 0.00 0.00 69 1024.5
20221205162003 55 114 0.0 3.0 0.00 0.00 0.00 69 1024.2
20221205161505 56 104 1.0 3.0 0.00 0.00 0.00 69 1024.4
20221205161003 56 75 1.0 4.0 0.00 0.00 0.00 69 1024.4
20221205160505 56 61 1.0 4.0 0.00 0.00 0.00 68 1024.3
20221205160004 56 59 0.0 3.0 0.00 0.00 0.00 68 1024.5
20221205155503 56 55 0.0 3.0 0.00 0.00 0.00 68 1024.3
20221205155005 56 82 0.0 3.0 0.00 0.00 0.00 68 1024.5
20221205154506 56 135 0.0 1.0 0.00 0.00 0.00 68 1024.5
20221205154004 56 149 0.0 1.0 0.00 0.00 0.00 68 1024.5
20221205153504 56 170 0.0 3.0 0.00 0.00 0.00 67 1024.7
20221205153005 56 158 0.0 3.0 0.00 0.00 0.00 67 1024.6
20221205152504 56 150 0.0 4.0 0.00 0.00 0.00 67 1024.4
20221205152004 56 143 1.0 4.0 0.00 0.00 0.00 66 1024.3
20221205151504 56 131 1.0 4.0 0.00 0.00 0.00 66 1024.5
20221205151003 56 118 1.0 4.0 0.00 0.00 0.00 66 1024.4
20221205150005 57 65 0.0 3.0 0.00 0.00 0.00 66 1024.4
20221205145504 57 75 1.0 3.0 0.00 0.00 0.00 65 1024.6
20221205145004 57 89 1.0 3.0 0.00 0.00 0.00 64 1024.4
20221205144504 57 72 1.0 3.0 0.00 0.00 0.00 64 1024.4
20221205144004 57 52 1.0 3.0 0.00 0.00 0.00 64 1024.3
20221205143504 57 62 0.0 2.0 0.00 0.00 0.00 63 1024.5
20221205143005 57 84 0.0 3.0 0.00 0.00 0.00 63 1024.3
20221205141504 57 86 0.0 4.0 0.00 0.00 0.00 62 1024.3
20221205141004 57 89 1.0 4.0 0.00 0.00 0.00 61 1024.7
20221205140504 57 90 1.0 4.0 0.00 0.00 0.00 61 1024.4
20221205140005 58 89 1.0 4.0 0.00 0.00 0.00 61 1024.4
20221205135004 58 83 0.0 3.0 0.00 0.00 0.00 59 1024.4
20221205134504 58 74 0.0 3.0 0.00 0.00 0.00 58 1024.3
20221205134004 58 48 1.0 4.0 0.00 0.00 0.00 59 1024.5
20221205133504 58 58 1.0 4.0 0.00 0.00 0.00 59 1024.6
20221205133004 58 67 1.0 4.0 0.00 0.00 0.00 59 1024.6
20221205132504 58 55 1.0 4.0 0.00 0.00 0.00 59 1024.6
20221205132004 58 43 0.0 4.0 0.00 0.00 0.00 59 1024.6
20221205131504 58 58 0.0 3.0 0.00 0.00 0.00 61 1024.3
20221205131004 58 336 0.0 3.0 0.00 0.00 0.00 61 1024.5
20221205130503 58 318 0.0 4.0 0.00 0.00 0.00 63 1024.6
20221205124504 58 272 0.0 2.0 0.00 0.00 0.00 62 1024.4
20221205124003 58 338 0.0 4.0 0.00 0.00 0.00 63 1024.6
20221205123504 58 14 1.0 4.0 0.00 0.00 0.00 64 1024.5
20221205123004 58 47 1.0 4.0 0.00 0.00 0.00 64 1024.5
20221205122504 58 44 1.0 4.0 0.00 0.00 0.00 64 1024.5
20221205121003 58 311 0.0 4.0 0.00 0.00 0.00 64 1024.4
20221205120504 58 319 0.0 4.0 0.00 0.00 0.00 66 1024.6
20221205120004 58 308 1.0 6.0 0.00 0.00 0.00 65 1024.6
20221205115503 58 310 1.0 6.0 0.00 0.00 0.00 65 1024.7
20221205115003 58 302 1.0 6.0 0.00 0.00 0.00 66 1024.7
20221205114504 58 272 1.0 4.0 0.00 0.00 0.00 66 1024.9
20221205114004 57 240 0.0 3.0 0.00 0.00 0.00 66 1024.7
20221205113504 57 260 0.0 4.0 0.00 0.00 0.00 66 1024.8
20221205113005 57 273 1.0 5.0 0.00 0.00 0.00 66 1025.0
20221205112504 57 253 2.0 7.0 0.00 0.00 0.00 66 1025.2
20221205111504 57 229 2.0 9.0 0.00 0.00 0.00 66 1025.3
20221205110504 57 234 2.0 8.0 0.00 0.00 0.00 66 1025.2
20221205110005 57 225 2.0 6.0 0.00 0.00 0.00 67 1025.4
20221205105504 56 224 2.0 7.0 0.00 0.00 0.00 69 1025.3
20221205105004 56 243 2.0 7.0 0.00 0.00 0.00 67 1025.4
20221205104505 56 239 3.0 7.0 0.00 0.00 0.00 69 1025.6
20221205104004 56 231 3.0 7.0 0.00 0.00 0.00 68 1025.6
20221205103504 56 226 3.0 6.0 0.00 0.00 0.00 67 1025.8
20221205103004 56 218 2.0 6.0 0.00 0.00 0.00 66 1025.7
20221205102504 56 229 2.0 7.0 0.00 0.00 0.00 66 1025.6
20221205102003 57 243 2.0 7.0 0.00 0.00 0.00 66 1025.6
20221205101504 57 250 1.0 6.0 0.00 0.00 0.00 66 1025.8
20221205101003 57 238 1.0 4.0 0.00 0.00 0.00 65 1025.7
20221205100505 57 225 1.0 4.0 0.00 0.00 0.00 65 1025.9
20221205100004 57 214 1.0 4.0 0.00 0.00 0.00 65 1026.0
20221205095503 57 206 2.0 5.0 0.00 0.00 0.00 65 1025.8
20221205095004 56 220 1.0 5.0 0.00 0.00 0.00 65 1025.9
20221205094504 56 218 1.0 5.0 0.00 0.00 0.00 65 1025.8
20221205094003 56 222 1.0 4.0 0.00 0.00 0.00 66 1026.1
20221205091504 57 199 1.0 4.0 0.00 0.00 0.00 67 1026.0
20221205091003 56 217 1.0 5.0 0.00 0.00 0.00 67 1026.1
20221205090504 56 230 1.0 5.0 0.00 0.00 0.00 66 1026.1
20221205090004 57 219 1.0 5.0 0.00 0.00 0.00 67 1026.3
20221205085003 56 247 1.0 4.0 0.00 0.00 0.00 70 1026.2
20221205084003 55 226 1.0 4.0 0.00 0.00 0.00 71 1026.3
20221205083504 55 219 1.0 4.0 0.00 0.00 0.00 70 1026.4
20221205083004 55 227 0.0 3.0 0.00 0.00 0.00 69 1026.4
20221205082504 55 239 0.0 1.0 0.00 0.00 0.00 70 1026.6
20221205082003 55 244 0.0 2.0 0.00 0.00 0.00 70 1026.6
20221205081504 55 222 0.0 2.0 0.00 0.00 0.00 72 1026.6
20221205081004 55 206 0.0 2.0 0.00 0.00 0.00 72 1026.7
20221205080504 55 300 0.0 1.0 0.00 0.00 0.00 73 1026.7
20221205075504 54 253 0.0 2.0 0.00 0.00 0.00 78 1026.8
20221205075003 54 236 0.0 2.0 0.00 0.00 0.00 78 1026.6
20221205074504 53 239 0.0 4.0 0.00 0.00 0.00 78 1026.6
20221205074003 53 241 0.0 4.0 0.00 0.00 0.00 79 1026.8
20221205073503 53 232 0.0 4.0 0.00 0.00 0.00 79 1026.8
20221205072504 53 226 1.0 4.0 0.00 0.00 0.00 79 1026.7
20221205072004 53 234 1.0 4.0 0.00 0.00 0.00 79 1026.6
20221205071505 52 219 1.0 4.0 0.00 0.00 0.00 79 1026.5
20221205070504 52 226 1.0 4.0 0.00 0.00 0.00 79 1026.5
20221205065504 52 267 0.0 4.0 0.00 0.00 0.00 79 1026.3
20221205065003 52 244 1.0 4.0 0.00 0.00 0.00 80 1026.0
20221205064504 52 233 1.0 4.0 0.00 0.00 0.00 80 1026.1
20221205063504 51 241 0.0 3.0 0.00 0.00 0.00 81 1025.8
20221205063004 51 259 0.0 4.0 0.00 0.00 0.00 80 1025.6
20221205062004 51 229 0.0 3.0 0.00 0.00 0.00 80 1025.8
20221205061504 51 249 0.0 5.0 0.00 0.00 0.00 80 1025.6
20221205061004 51 241 1.0 5.0 0.00 0.00 0.00 80 1025.6
20221205060504 51 237 1.0 5.0 0.00 0.00 0.00 79 1025.5
20221205060005 51 243 1.0 4.0 0.00 0.00 0.00 80 1025.6
20221205055504 51 231 1.0 4.0 0.00 0.00 0.00 80 1025.3
20221205055003 51 226 2.0 4.0 0.00 0.00 0.00 81 1025.4
20221205054504 50 234 1.0 4.0 0.00 0.00 0.00 81 1025.5
20221205053503 50 259 0.0 3.0 0.00 0.00 0.00 82 1025.2
20221205053004 50 266 1.0 5.0 0.00 0.00 0.00 82 1025.6
20221205052503 50 275 1.0 5.0 0.00 0.00 0.00 82 1025.5
20221205052004 50 275 1.0 4.0 0.00 0.00 0.00 83 1025.5
20221205051505 50 239 1.0 5.0 0.00 0.00 0.00 83 1025.6
20221205051004 50 250 1.0 5.0 0.00 0.00 0.00 83 1025.6
20221205050503 49 264 1.0 4.0 0.00 0.00 0.00 83 1025.4
20221205050004 49 244 0.0 3.0 0.00 0.00 0.00 83 1025.5
20221205045503 49 228 1.0 4.0 0.00 0.00 0.00 83 1025.3
20221205045004 50 231 1.0 5.0 0.00 0.00 0.00 83 1025.2
20221205044504 50 236 1.0 5.0 0.00 0.00 0.00 83 1025.4
20221205044003 50 228 1.0 4.0 0.00 0.00 0.00 83 1025.3
20221205043504 50 225 1.0 4.0 0.00 0.00 0.00 83 1025.2
20221205042503 50 263 0.0 4.0 0.00 0.00 0.00 84 1025.2
20221205042004 49 270 1.0 5.0 0.00 0.00 0.00 84 1025.3
20221205041503 49 270 1.0 5.0 0.00 0.00 0.00 84 1025.2
20221205041003 49 243 1.0 4.0 0.00 0.00 0.00 84 1025.1
20221205040004 49 232 1.0 4.0 0.00 0.00 0.00 85 1025.3
20221205035004 48 264 0.0 2.0 0.00 0.00 0.00 86 1025.1
20221205034504 48 270 0.0 2.0 0.00 0.00 0.00 85 1025.1
20221205033504 48 0 0.0 0.0 0.00 0.00 0.00 85 1024.9
20221205032504 49 45 0.0 1.0 0.00 0.00 0.00 84 1024.9
20221205032003 49 32 0.0 1.0 0.00 0.00 0.00 84 1025.0
20221205031504 49 11 0.0 1.0 0.00 0.00 0.00 83 1024.8
20221205031004 49 1 0.0 1.0 0.00 0.00 0.00 83 1025.0
20221205030503 50 314 0.0 1.0 0.00 0.00 0.00 83 1025.0
20221205030004 49 314 0.0 1.0 0.00 0.00 0.00 84 1025.0
20221205025504 49 270 0.0 1.0 0.00 0.00 0.00 84 1024.9
20221205025004 49 184 0.0 1.0 0.00 0.00 0.00 84 1024.9
20221205024504 49 157 0.0 3.0 0.00 0.00 0.00 84 1024.8
20221205023005 50 119 0.0 2.0 0.00 0.00 0.00 83 1024.9
20221205022504 50 176 0.0 2.0 0.00 0.00 0.00 82 1024.9
20221205022004 50 201 0.0 1.0 0.00 0.00 0.00 82 1025.2
20221205021504 50 193 0.0 3.0 0.00 0.00 0.00 82 1025.2
20221205021003 51 234 0.0 4.0 0.00 0.00 0.00 81 1025.0
20221205020504 51 238 0.0 4.0 0.00 0.00 0.00 81 1025.3
20221205020005 51 214 0.0 3.0 0.00 0.00 0.00 81 1025.5
20221205015504 51 240 0.0 2.0 0.00 0.00 0.00 81 1025.6
20221205015003 51 258 0.0 2.0 0.00 0.00 0.00 81 1025.5
20221205013004 52 229 1.0 4.0 0.00 0.00 0.00 79 1025.6
20221205012504 52 245 0.0 2.0 0.00 0.00 0.00 79 1025.6
20221205011504 52 0 0.0 0.0 0.00 0.00 0.00 78 1025.7
20221205011003 52 181 0.0 1.0 0.00 0.00 0.00 77 1025.8
20221205010004 52 209 0.0 2.0 0.00 0.00 0.00 76 1025.6
20221205005503 53 205 0.0 2.0 0.00 0.00 0.00 76 1025.6
20221205005004 53 204 0.0 2.0 0.00 0.00 0.00 77 1025.8
20221205004504 52 228 0.0 2.0 0.00 0.00 0.00 76 1025.7
20221205004003 53 222 0.0 3.0 0.00 0.00 0.00 76 1025.8
20221205003504 53 212 1.0 3.0 0.00 0.00 0.00 76 1025.8
20221205003005 53 213 1.0 4.0 0.00 0.00 0.00 76 1025.8
20221205002504 53 221 1.0 4.0 0.00 0.00 0.00 75 1025.7
20221205002004 53 225 0.0 3.0 0.00 0.00 0.00 76 1025.7
20221205001504 53 225 1.0 3.0 0.00 0.00 0.00 76 1025.8
20221205001003 53 225 0.0 3.0 0.00 0.00 0.00 75 1025.7
20221205000503 53 231 0.0 2.0 0.00 0.00 0.00 76 1025.7
20221205000004 53 221 0.0 3.0 0.00 0.00 0.00 75 1025.8
20221204235504 53 222 1.0 3.0 0.00 0.00 0.00 75 1025.9
20221204235003 53 233 1.0 4.0 0.00 0.00 0.00 75 1025.9
20221204234504 53 223 2.0 5.0 0.00 0.00 0.00 74 1025.7
20221204234003 53 219 2.0 5.0 0.00 0.00 0.00 74 1025.8
20221204233504 53 224 1.0 4.0 0.00 0.00 0.00 74 1025.6
20221204233004 53 241 1.0 4.0 0.00 0.00 0.00 74 1025.7
20221204232504 53 247 0.0 4.0 0.00 0.00 0.00 74 1025.8
20221204231503 53 251 0.0 3.0 0.00 0.00 0.00 74 1025.9
20221204231003 53 220 0.0 4.0 0.00 0.00 0.00 75 1026.0
20221204230504 53 212 0.0 4.0 0.00 0.00 0.00 75 1026.0
20221204230002 53 247 0.0 3.0 0.00 0.00 0.00 75 1026.0
20221204225501 53 288 0.0 3.0 0.00 0.00 0.00 75 1026.1
20221204225000 53 329 0.0 2.0 0.00 0.00 0.00 75 1026.0
20221204224501 53 280 0.0 4.0 0.00 0.00 0.00 76 1026.2
20221204223001 54 230 1.0 6.0 0.00 0.00 0.00 74 1026.2
20221204222001 54 270 0.0 2.0 0.00 0.00 0.00 73 1026.1
20221204221001 53 303 0.0 3.0 0.00 0.00 0.00 74 1026.0
20221204220500 53 269 0.0 4.0 0.00 0.00 0.00 75 1026.2
20221204220002 53 242 1.0 4.0 0.00 0.00 0.00 75 1026.1
20221204215501 53 236 1.0 4.0 0.00 0.00 0.00 74 1026.3
20221204215000 53 247 0.0 3.0 0.00 0.00 0.00 74 1026.0
20221204214501 53 246 0.0 2.0 0.00 0.00 0.00 74 1026.2
20221204214000 53 197 0.0 1.0 0.00 0.00 0.00 74 1026.2
20221204213501 53 210 0.0 2.0 0.00 0.00 0.00 74 1026.4